Weather in Muravlyanka

Russia / Ryazan Oblast     53°44′26″N   38°59′15″E
temp.,
°C
wind,
m/s
gust,
m/s
humid.,
%
clouds,
%
prec.,
mm/h
press.,
hPa
HPBL,
m
28 september, tue
tue2800:00+8nne5993100 0.6 1021625
03:00+7ne5991100 1.1 1023718
06:00+6ne5789100 0.1 1025859
09:00+5ne5891100 0.1 1026908
12:00+6ne5883100 0.1 1028876
15:00+7ne6772100 0.1 10291247
18:00+6ne4874100 0.0 1031770
21:00+5ne367491 0.0 1032154
29 september, wed
wed2900:00+3n37875 0.0 1033165
03:00+2nne35890 0.0 1034102
06:00+1n36905 0.0 1035124
09:00+5nne46735 0.0 1035317
12:00+9nne45575 0.0 1034895
15:00+10nne44495 0.0 10331131
18:00+7nne33655 0.0 103330
21:00+6nne227384 0.0 103428
30 september, thu
thu3000:00+5nne227778 0.0 103422
03:00+4n22835 0.0 103521
06:00+3nne22875 0.0 103526
09:00+7ne23715 0.0 1036236
12:00+11ne23565 0.0 1035849
15:00+12ne225318 0.0 10351249
18:00+9nne11665 0.0 103410
21:00+7nne11735 0.0 103510
1 october, fri
fri100:00+7nnw117746 0.0 103610
03:00+6wnw227852 0.0 103616
06:00+5nw22825 0.0 103619
09:00+9nw22695 0.0 1036196
12:00+12wnw22575 0.0 1036771
15:00+13wnw22545 0.0 10351049
18:00+10w11665 0.0 103410
21:00+9w11725 0.0 103510
2 october, sat
sat200:00+8w11765 0.0 103510
03:00+7w22795 0.0 103510
06:00+6wsw11825 0.0 103510
09:00+10sw12705 0.0 1035184
12:00+13ssw23565 0.0 1034801
15:00+14ssw23525 0.0 10331117
18:00+11ssw22655 0.0 103312
21:00+10s22735 0.0 103415